Погода в Кракове

Польша     50°03′43″N   19°56′12″E
темп.,
°C
ветер,
м/с
пор.,
м/с
влажн.,
%
обл.,
%
осадки,
мм/ч
давл.,
гПа
погр.,
м
7 марта, вс
вс701:00−1зюз39670 0.0 1029313
04:00−1зюз412600 0.0 1026471
07:00−1зюз413600 0.0 1025653
10:00+3з812420 0.0 10231201
13:00+6з812400 0.0 10201340
16:00+4з712470 0.0 10181025
19:00+1зюз5126017 0.0 1019364
22:00−1з357783 0.0 1018229
8 марта, пн
пн801:000з498286 0.0 1018427
04:00−1з599180 0.0 1017423
07:00−1з589589 0.3 1018455
10:00+1с4577100 0.8 1019704
13:00+3ссз345193 0.9 10201414
16:00+2ссз354728 0.0 10201452
19:00−1ссз235914 0.0 1022161
22:00−2сз116540 0.0 102241
9 марта, вт
вт901:00−2зюз116756 0.0 102235
04:00−2зюз116985 0.0 102244
07:00−2зюз116566 0.0 102287
10:00+1з115192 0.0 10221028
13:00+3сз114280 0.0 10211409
16:00+2с114474 0.0 10191085
19:000вюв225687 0.0 102193
22:00−1вюв1261100 0.0 102176
10 марта, ср
ср1001:00−1ююз116694 0.0 102124
04:00−1зюз117295 0.0 102022
07:00−1з117195 0.0 102177
10:00+2юз116180 0.0 1022762
13:00+4з235672 0.0 10221152
16:00+4зюз235457 0.0 10211120
19:00+1юв126743 0.0 102225
22:000ю22700 0.0 102236
11 марта, чт
чт1101:000ю23723 0.0 102147
04:000ю237435 0.0 101948
07:00+2ю287468 0.0 1017240
10:00+7юз51457100 0.0 10141328
13:00+9юз71561100 0.0 10121272
16:00+8зюз51573100 0.0 10111136
19:00+6юз41876100 0.0 1010785
22:00+7юз51770100 0.0 1010657